Location: �couen
(49.0206°N, 2.3831°E)
Time: 00:43:13
(UTC+00:00)

Cosmos 1544 Rocket - Pass Details

Date: 16 October 2021
Orbit: 603 x 632 km, 82.5° (Epoch: 27 November)

Event Time Altitude Azimuth Distance (km) Brightness Sun altitude
Rises 18:21:14 0° 164° (SSE) 2,908 6.8 -14.3°
Reaches altitude 10° 18:23:35 10° 155° (SSE) 2,008 5.9 -14.7°
Maximum altitude 18:27:37 35° 91° (E) 1,034 4.1 -15.4°
Drops below altitude 10° 18:31:41 10° 26° (NNE) 2,025 6.0 -16.0°
Sets 18:34:04 0° 18° (NNE) 2,938 6.9 -16.4°
